| time (UTC) | temp F | wind direction | speed knots | gust knots | rain 1hr in | rain 24hr in | rain mn in | humidity % | barometer mb |
| 20260503032656 | 40 | 225 | 0.0 | 0.0 | 0.00 | 0.00 | 0.00 | 62 | |
| 20260503032156 | 40 | 225 | 0.0 | 0.0 | 0.00 | 0.00 | 0.00 | 62 | |
| 20260503031656 | 40 | 225 | 0.0 | 0.0 | 0.00 | 0.00 | 0.00 | 61 | |
| 20260503031156 | 40 | 225 | 0.0 | 0.0 | 0.00 | 0.00 | 0.00 | 61 | |
| 20260503030656 | 41 | 225 | 0.0 | 2.6 | 0.00 | 0.00 | 0.00 | 61 | |
| 20260503030156 | 41 | 234 | 1.7 | 2.6 | 0.00 | 0.00 | 0.00 | 60 | |
| 20260503025656 | 41 | 258 | 1.7 | 3.5 | 0.00 | 0.00 | 0.00 | 60 | |
| 20260503025156 | 41 | 281 | 0.0 | 0.0 | 0.00 | 0.00 | 0.00 | 60 | |
| 20260503024656 | 41 | 281 | 0.0 | 5.2 | 0.00 | 0.00 | 0.00 | 59 | |
| 20260503024156 | 41 | 248 | 1.7 | 3.5 | 0.00 | 0.00 | 0.00 | 59 | |
| 20260503023656 | 41 | 254 | 1.7 | 3.5 | 0.00 | 0.00 | 0.00 | 59 | |
| 20260503023156 | 41 | 255 | 1.7 | 2.6 | 0.00 | 0.00 | 0.00 | 59 | |
| 20260503022656 | 41 | 250 | 0.9 | 2.6 | 0.00 | 0.00 | 0.00 | 59 | |
| 20260503022156 | 41 | 257 | 1.7 | 3.5 | 0.00 | 0.00 | 0.00 | 58 | |
| 20260503021656 | 42 | 240 | 1.7 | 3.5 | 0.00 | 0.00 | 0.00 | 57 | |
| 20260503021156 | 42 | 277 | 0.9 | 2.6 | 0.00 | 0.00 | 0.00 | 57 | |
| 20260503020656 | 42 | 279 | 0.0 | 2.6 | 0.00 | 0.00 | 0.00 | 56 | |
| 20260503020156 | 42 | 284 | 1.7 | 4.3 | 0.00 | 0.00 | 0.00 | 55 | |
| 20260503015656 | 43 | 272 | 2.6 | 4.3 | 0.00 | 0.00 | 0.00 | 55 | |
| 20260503015156 | 43 | 251 | 1.7 | 5.2 | 0.00 | 0.00 | 0.00 | 54 | |
| 20260503014656 | 43 | 270 | 2.6 | 4.3 | 0.00 | 0.00 | 0.00 | 53 | |
| 20260503014156 | 43 | 265 | 1.7 | 4.3 | 0.00 | 0.00 | 0.00 | 53 | |
| 20260503013656 | 43 | 282 | 0.9 | 5.2 | 0.00 | 0.00 | 0.00 | 52 | |
| 20260503013156 | 44 | 261 | 4.3 | 5.2 | 0.00 | 0.00 | 0.00 | 51 | |
| 20260503012656 | 44 | 279 | 0.9 | 5.2 | 0.00 | 0.00 | 0.00 | 51 | |
| 20260503012156 | 44 | 270 | 2.6 | 6.1 | 0.00 | 0.00 | 0.00 | 51 | |
| 20260503011656 | 44 | 293 | 1.7 | 6.1 | 0.00 | 0.00 | 0.00 | 50 | |
| 20260503011156 | 45 | 275 | 1.7 | 7.0 | 0.00 | 0.00 | 0.00 | 50 | |
| 20260503010656 | 45 | 285 | 4.3 | 5.2 | 0.00 | 0.00 | 0.00 | 50 | |
| 20260503010156 | 45 | 258 | 1.7 | 6.1 | 0.00 | 0.00 | 0.00 | 50 | |
| 20260503005656 | 46 | 277 | 1.7 | 2.6 | 0.00 | 0.00 | 0.00 | 49 | |
| 20260503005156 | 46 | 306 | 0.9 | 7.0 | 0.00 | 0.00 | 0.00 | 49 | |
| 20260503004656 | 46 | 270 | 3.5 | 5.2 | 0.00 | 0.00 | 0.00 | 48 | |
| 20260503004156 | 47 | 265 | 4.3 | 7.0 | 0.00 | 0.00 | 0.00 | 47 | |
| 20260503003656 | 47 | 309 | 2.6 | 7.0 | 0.00 | 0.00 | 0.00 | 45 | |
| 20260503003156 | 48 | 295 | 6.1 | 9.6 | 0.00 | 0.00 | 0.00 | 43 | |
| 20260503002656 | 49 | 265 | 3.5 | 10.4 | 0.00 | 0.00 | 0.00 | 40 | |
| 20260503002156 | 50 | 307 | 5.2 | 6.1 | 0.00 | 0.00 | 0.00 | 32 | |
| 20260503001656 | 50 | 343 | 2.6 | 10.4 | 0.00 | 0.00 | 0.00 | 32 | |
| 20260503001156 | 50 | 302 | 4.3 | 7.8 | 0.00 | 0.00 | 0.00 | 32 | |
| 20260503000656 | 50 | 284 | 0.0 | 6.1 | 0.00 | 0.00 | 0.00 | 33 | |
| 20260503000156 | 50 | 345 | 4.3 | 9.6 | 0.00 | 0.00 | 0.00 | 31 | |
| 20260502235656 | 50 | 352 | 7.8 | 11.3 | 0.00 | 0.00 | 0.00 | 31 | |
| 20260502235156 | 50 | 11 | 7.0 | 8.7 | 0.00 | 0.00 | 0.00 | 31 | |
| 20260502234656 | 51 | 296 | 4.3 | 10.4 | 0.00 | 0.00 | 0.00 | 32 | |
| 20260502234156 | 50 | 358 | 1.7 | 7.0 | 0.00 | 0.00 | 0.00 | 31 | |
| 20260502233656 | 50 | 357 | 3.5 | 9.6 | 0.00 | 0.00 | 0.00 | 31 | |
| 20260502233156 | 50 | 306 | 2.6 | 10.4 | 0.00 | 0.00 | 0.00 | 30 | |
| 20260502232656 | 50 | 347 | 5.2 | 11.3 | 0.00 | 0.00 | 0.00 | 30 | |
| 20260502232156 | 50 | 357 | 6.1 | 13.9 | 0.00 | 0.00 | 0.00 | 31 | |
| 20260502231656 | 50 | 358 | 6.1 | 11.3 | 0.00 | 0.00 | 0.00 | 29 | |
| 20260502231156 | 50 | 331 | 7.0 | 13.0 | 0.00 | 0.00 | 0.00 | 30 | |
| 20260502230656 | 50 | 1 | 1.7 | 13.0 | 0.00 | 0.00 | 0.00 | 32 | |
| 20260502230156 | 50 | 348 | 4.3 | 10.4 | 0.00 | 0.00 | 0.00 | 30 | |
| 20260502225656 | 50 | 358 | 6.1 | 10.4 | 0.00 | 0.00 | 0.00 | 29 | |
| 20260502225156 | 51 | 347 | 4.3 | 8.7 | 0.00 | 0.00 | 0.00 | 32 | |
| 20260502224656 | 50 | 358 | 7.8 | 10.4 | 0.00 | 0.00 | 0.00 | 29 | |
| 20260502224156 | 50 | 327 | 8.7 | 13.9 | 0.00 | 0.00 | 0.00 | 29 | |
| 20260502223656 | 51 | 8 | 6.1 | 13.9 | 0.00 | 0.00 | 0.00 | 28 | |
| 20260502223156 | 51 | 26 | 11.3 | 15.6 | 0.00 | 0.00 | 0.00 | 29 | |
| 20260502222656 | 51 | 310 | 8.7 | 11.3 | 0.00 | 0.00 | 0.00 | 28 | |
| 20260502222156 | 51 | 329 | 3.5 | 13.9 | 0.00 | 0.00 | 0.00 | 29 | |
| 20260502221656 | 51 | 319 | 8.7 | 14.8 | 0.00 | 0.00 | 0.00 | 28 | |
| 20260502221156 | 51 | 319 | 4.3 | 12.2 | 0.00 | 0.00 | 0.00 | 28 | |
| 20260502220656 | 51 | 30 | 5.2 | 13.0 | 0.00 | 0.00 | 0.00 | 29 | |
| 20260502220156 | 50 | 358 | 6.1 | 13.0 | 0.00 | 0.00 | 0.00 | 27 | |
| 20260502215656 | 50 | 344 | 5.2 | 11.3 | 0.00 | 0.00 | 0.00 | 28 | |
| 20260502215156 | 51 | 29 | 5.2 | 13.9 | 0.00 | 0.00 | 0.00 | 31 | |
| 20260502214656 | 51 | 329 | 9.6 | 13.0 | 0.00 | 0.00 | 0.00 | 28 | |
| 20260502214156 | 51 | 298 | 11.3 | 14.8 | 0.00 | 0.00 | 0.00 | 27 | |
| 20260502213656 | 50 | 16 | 7.8 | 13.0 | 0.00 | 0.00 | 0.00 | 29 | |
| 20260502213156 | 51 | 15 | 1.7 | 13.9 | 0.00 | 0.00 | 0.00 | 30 | |
| 20260502212656 | 51 | 286 | 7.8 | 13.0 | 0.00 | 0.00 | 0.00 | 27 | |
| 20260502212157 | 50 | 298 | 6.1 | 13.0 | 0.00 | 0.00 | 0.00 | 26 | |
| 20260502211656 | 51 | 285 | 6.1 | 13.0 | 0.00 | 0.00 | 0.00 | 27 | |
| 20260502211157 | 50 | 358 | 7.0 | 13.0 | 0.00 | 0.00 | 0.00 | 26 | |
| 20260502210657 | 50 | 324 | 9.6 | 12.2 | 0.00 | 0.00 | 0.00 | 28 | |
| 20260502210157 | 50 | 23 | 7.0 | 11.3 | 0.00 | 0.00 | 0.00 | 30 | |
| 20260502205657 | 50 | 312 | 9.6 | 15.6 | 0.00 | 0.00 | 0.00 | 27 | |
| 20260502205157 | 50 | 324 | 7.8 | 15.6 | 0.00 | 0.00 | 0.00 | 26 | |
| 20260502204657 | 50 | 358 | 6.1 | 6.1 | 0.00 | 0.00 | 0.00 | 31 | |
| 20260502204157 | 50 | 341 | 5.2 | 9.6 | 0.00 | 0.00 | 0.00 | 35 | |
| 20260502203657 | 50 | 341 | 6.1 | 8.7 | 0.00 | 0.00 | 0.00 | 37 | |
| 20260502203157 | 49 | 257 | 4.3 | 14.8 | 0.00 | 0.00 | 0.00 | 41 | |
| 20260502202657 | 50 | 250 | 12.2 | 13.9 | 0.00 | 0.00 | 0.00 | 40 | |
| 20260502202157 | 50 | 9 | 7.0 | 12.2 | 0.00 | 0.00 | 0.00 | 38 | |
| 20260502201657 | 50 | 277 | 7.8 | 16.5 | 0.00 | 0.00 | 0.00 | 39 | |
| 20260502201157 | 50 | 248 | 7.0 | 12.2 | 0.00 | 0.00 | 0.00 | 34 | |
| 20260502200657 | 50 | 289 | 7.8 | 18.2 | 0.00 | 0.00 | 0.00 | 39 | |
| 20260502200157 | 49 | 279 | 7.0 | 13.9 | 0.00 | 0.00 | 0.00 | 38 | |
| 20260502195657 | 50 | 344 | 3.5 | 14.8 | 0.00 | 0.00 | 0.00 | 37 | |
| 20260502195157 | 50 | 288 | 9.6 | 13.9 | 0.00 | 0.00 | 0.00 | 39 | |
| 20260502194657 | 49 | 284 | 3.5 | 10.4 | 0.00 | 0.00 | 0.00 | 38 | |
| 20260502194157 | 49 | 260 | 8.7 | 13.9 | 0.00 | 0.00 | 0.00 | 37 | |
| 20260502193657 | 51 | 350 | 3.5 | 11.3 | 0.00 | 0.00 | 0.00 | 39 | |
| 20260502193157 | 49 | 319 | 6.1 | 13.9 | 0.00 | 0.00 | 0.00 | 37 | |
| 20260502192657 | 49 | 336 | 9.6 | 14.8 | 0.00 | 0.00 | 0.00 | 39 | |
| 20260502192157 | 49 | 307 | 6.1 | 13.9 | 0.00 | 0.00 | 0.00 | 41 | |
| 20260502191657 | 49 | 303 | 10.4 | 14.8 | 0.00 | 0.00 | 0.00 | 40 | |
| 20260502191157 | 49 | 262 | 6.1 | 11.3 | 0.00 | 0.00 | 0.00 | 39 | |
| 20260502190657 | 50 | 250 | 7.0 | 13.9 | 0.00 | 0.00 | 0.00 | 38 | |
| 20260502190157 | 49 | 271 | 9.6 | 13.9 | 0.00 | 0.00 | 0.00 | 41 | |
| 20260502185657 | 48 | 289 | 5.2 | 13.0 | 0.00 | 0.00 | 0.00 | 40 | |
| 20260502185157 | 47 | 334 | 2.6 | 14.8 | 0.00 | 0.00 | 0.00 | 40 | |
| 20260502184657 | 48 | 329 | 9.6 | 12.2 | 0.00 | 0.00 | 0.00 | 41 | |
| 20260502184157 | 48 | 340 | 5.2 | 13.0 | 0.00 | 0.00 | 0.00 | 41 | |
| 20260502183657 | 48 | 267 | 4.3 | 15.6 | 0.00 | 0.00 | 0.00 | 42 | |
| 20260502183157 | 47 | 324 | 7.0 | 13.0 | 0.00 | 0.00 | 0.00 | 42 | |
| 20260502182657 | 48 | 317 | 9.6 | 12.2 | 0.00 | 0.00 | 0.00 | 43 | |
| 20260502182157 | 47 | 285 | 6.1 | 8.7 | 0.00 | 0.00 | 0.00 | 40 | |
| 20260502181657 | 47 | 354 | 3.5 | 11.3 | 0.00 | 0.00 | 0.00 | 41 | |
| 20260502181157 | 47 | 312 | 6.1 | 11.3 | 0.00 | 0.00 | 0.00 | 41 | |
| 20260502180657 | 47 | 285 | 2.6 | 11.3 | 0.00 | 0.00 | 0.00 | 41 | |
| 20260502180157 | 47 | 262 | 6.1 | 10.4 | 0.00 | 0.00 | 0.00 | 40 | |
| 20260502170157 | 46 | 312 | 4.3 | 7.8 | 0.00 | 0.00 | 0.00 | 47 | |
| 20260502164157 | 45 | 307 | 3.5 | 8.7 | 0.00 | 0.00 | 0.00 | 46 | |
| 20260502163657 | 44 | 334 | 7.8 | 11.3 | 0.00 | 0.00 | 0.00 | 46 | |
| 20260502163157 | 45 | 14 | 0.9 | 7.8 | 0.00 | 0.00 | 0.00 | 48 | |
| 20260502162657 | 45 | 285 | 7.8 | 8.7 | 0.00 | 0.00 | 0.00 | 49 | |
| 20260502162157 | 44 | 274 | 8.7 | 8.7 | 0.00 | 0.00 | 0.00 | 48 | |
| 20260502161657 | 45 | 334 | 4.3 | 9.6 | 0.00 | 0.00 | 0.00 | 50 | |
| 20260502161157 | 45 | 340 | 5.2 | 7.0 | 0.00 | 0.00 | 0.00 | 49 | |
| 20260502160657 | 45 | 5 | 0.0 | 11.3 | 0.00 | 0.00 | 0.00 | 50 | |
| 20260502160157 | 44 | 23 | 2.6 | 13.9 | 0.00 | 0.00 | 0.00 | 50 | |
| 20260502152157 | 44 | 312 | 7.0 | 9.6 | 0.00 | 0.00 | 0.00 | 51 | |
| 20260502151657 | 42 | 9 | 7.8 | 13.0 | 0.00 | 0.00 | 0.00 | 51 | |
| 20260502151157 | 42 | 354 | 11.3 | 12.2 | 0.00 | 0.00 | 0.00 | 52 | |
| 20260502150657 | 42 | 292 | 6.1 | 9.6 | 0.00 | 0.00 | 0.00 | 52 | |
| 20260502150157 | 43 | 313 | 7.0 | 13.9 | 0.00 | 0.00 | 0.00 | 53 | |
| 20260502130657 | 39 | 351 | 5.2 | 6.1 | 0.00 | 0.00 | 0.00 | 78 | |
| 20260502130157 | 38 | 322 | 2.6 | 7.8 | 0.00 | 0.00 | 0.00 | 79 | |
| 20260502123657 | 37 | 327 | 1.7 | 3.5 | 0.00 | 0.00 | 0.00 | 83 | |
| 20260502123157 | 36 | 323 | 0.9 | 3.5 | 0.00 | 0.00 | 0.00 | 84 | |
| 20260502122657 | 36 | 340 | 1.7 | 3.5 | 0.00 | 0.00 | 0.00 | 86 | |
| 20260502122157 | 35 | 21 | 0.0 | 0.9 | 0.00 | 0.00 | 0.00 | 88 | |
| 20260502121657 | 35 | 343 | 0.0 | 3.5 | 0.00 | 0.00 | 0.00 | 88 | |
| 20260502121157 | 34 | 336 | 0.9 | 2.6 | 0.00 | 0.00 | 0.00 | 88 | |
| 20260502120657 | 33 | 1 | 0.9 | 2.6 | 0.00 | 0.00 | 0.00 | 88 | |
| 20260502120157 | 33 | 9 | 0.9 | 1.7 | 0.00 | 0.00 | 0.00 | 89 | |
| 20260502115657 | 33 | 327 | 0.0 | 2.6 | 0.00 | 0.00 | 0.00 | 89 | |
| 20260502115157 | 32 | 225 | 0.0 | 0.0 | 0.00 | 0.00 | 0.00 | 90 | |
| 20260502114657 | 32 | 225 | 0.0 | 0.0 | 0.00 | 0.00 | 0.00 | 89 | |
| 20260502114158 | 31 | 225 | 0.0 | 0.0 | 0.00 | 0.00 | 0.00 | 90 | |
| 20260502113658 | 31 | 225 | 0.0 | 0.0 | 0.00 | 0.00 | 0.00 | 90 | |
| 20260502113158 | 31 | 225 | 0.0 | 0.0 | 0.00 | 0.00 | 0.00 | 90 | |
| 20260502112658 | 30 | 225 | 0.0 | 0.0 | 0.00 | 0.00 | 0.00 | 90 | |
| 20260502112158 | 30 | 225 | 0.0 | 0.0 | 0.00 | 0.00 | 0.00 | 90 | |
| 20260502111658 | 30 | 225 | 0.0 | 0.0 | 0.00 | 0.00 | 0.00 | 89 | |
| 20260502111158 | 30 | 225 | 0.0 | 0.0 | 0.00 | 0.00 | 0.00 | 89 | |
| 20260502110658 | 30 | 225 | 0.0 | 0.0 | 0.00 | 0.00 | 0.00 | 89 | |
| 20260502110158 | 30 | 225 | 0.0 | 0.0 | 0.00 | 0.00 | 0.00 | 89 | |
| 20260502105658 | 30 | 225 | 0.0 | 0.0 | 0.00 | 0.00 | 0.00 | 89 | |
| 20260502105158 | 29 | 225 | 0.0 | 0.0 | 0.00 | 0.00 | 0.00 | 89 | |
| 20260502104658 | 29 | 225 | 0.0 | 0.0 | 0.00 | 0.00 | 0.00 | 89 | |
| 20260502104158 | 29 | 225 | 0.0 | 0.0 | 0.00 | 0.00 | 0.00 | 88 | |
| 20260502103658 | 29 | 225 | 0.0 | 0.0 | 0.00 | 0.00 | 0.00 | 88 | |
| 20260502103158 | 29 | 225 | 0.0 | 0.0 | 0.00 | 0.00 | 0.00 | 88 | |
| 20260502102658 | 30 | 225 | 0.0 | 0.0 | 0.00 | 0.00 | 0.00 | 87 | |
| 20260502102158 | 30 | 225 | 0.0 | 0.0 | 0.00 | 0.00 | 0.00 | 87 | |
| 20260502101658 | 30 | 225 | 0.0 | 0.0 | 0.00 | 0.00 | 0.00 | 87 | |
| 20260502101158 | 30 | 225 | 0.0 | 0.0 | 0.00 | 0.00 | 0.00 | 87 | |
| 20260502100658 | 31 | 225 | 0.0 | 0.0 | 0.00 | 0.00 | 0.00 | 87 | |
| 20260502100158 | 31 | 225 | 0.0 | 0.0 | 0.00 | 0.00 | 0.00 | 87 | |
| 20260502091158 | 31 | 323 | 0.0 | 0.0 | 0.00 | 0.00 | 0.00 | 84 | |
| 20260502090658 | 31 | 323 | 0.0 | 0.0 | 0.00 | 0.00 | 0.00 | 83 | |
| 20260502090158 | 32 | 323 | 0.0 | 0.0 | 0.00 | 0.00 | 0.00 | 83 | |
| 20260502071158 | 35 | 323 | 0.0 | 0.0 | 0.00 | 0.00 | 0.00 | 76 | |
| 20260502070658 | 36 | 323 | 0.0 | 0.0 | 0.00 | 0.00 | 0.00 | 76 | |
| 20260502070158 | 36 | 323 | 0.0 | 0.9 | 0.00 | 0.00 | 0.00 | 76 | |
| 20260502065658 | 36 | 343 | 0.0 | 0.0 | 0.00 | 0.00 | 0.00 | 75 | |
| 20260502065158 | 36 | 343 | 0.0 | 1.7 | 0.00 | 0.00 | 0.00 | 75 | |
| 20260502064658 | 36 | 352 | 0.9 | 0.9 | 0.00 | 0.00 | 0.00 | 74 | |
| 20260502064158 | 36 | 312 | 0.0 | 2.6 | 0.00 | 0.00 | 0.00 | 74 | |
| 20260502063658 | 36 | 344 | 0.9 | 1.7 | 0.00 | 0.00 | 0.00 | 74 | |
| 20260502063158 | 36 | 351 | 0.9 | 2.6 | 0.00 | 0.00 | 0.00 | 74 | |
| 20260502062658 | 36 | 351 | 0.0 | 1.7 | 0.00 | 0.00 | 0.00 | 74 | |
| 20260502062158 | 36 | 357 | 1.7 | 2.6 | 0.00 | 0.00 | 0.00 | 73 | |
| 20260502061658 | 36 | 317 | 1.7 | 1.7 | 0.00 | 0.00 | 0.00 | 73 | |
| 20260502061158 | 37 | 307 | 0.9 | 2.6 | 0.00 | 0.00 | 0.00 | 72 | |
| 20260502060658 | 37 | 299 | 0.0 | 2.6 | 0.00 | 0.00 | 0.00 | 72 | |
| 20260502060158 | 37 | 333 | 0.9 | 2.6 | 0.00 | 0.00 | 0.00 | 72 | |
| 20260502055658 | 37 | 343 | 0.9 | 1.7 | 0.00 | 0.00 | 0.00 | 71 | |
| 20260502055158 | 37 | 345 | 0.0 | 2.6 | 0.00 | 0.00 | 0.00 | 71 | |
| 20260502054658 | 37 | 2 | 0.0 | 2.6 | 0.00 | 0.00 | 0.00 | 71 | |
| 20260502054158 | 37 | 358 | 1.7 | 5.2 | 0.00 | 0.00 | 0.00 | 71 | |
| 20260502053658 | 37 | 350 | 2.6 | 2.6 | 0.00 | 0.00 | 0.00 | 70 | |
| 20260502053158 | 37 | 36 | 1.7 | 5.2 | 0.00 | 0.00 | 0.00 | 70 | |
| 20260502052658 | 37 | 7 | 4.3 | 4.3 | 0.00 | 0.00 | 0.00 | 70 | |
| 20260502052158 | 37 | 355 | 0.9 | 4.3 | 0.00 | 0.00 | 0.00 | 70 | |
| 20260502051658 | 37 | 343 | 2.6 | 6.1 | 0.00 | 0.00 | 0.00 | 69 | |
| 20260502051158 | 37 | 7 | 2.6 | 6.1 | 0.00 | 0.00 | 0.00 | 69 | |
| 20260502050658 | 37 | 35 | 2.6 | 5.2 | 0.00 | 0.00 | 0.00 | 69 | |
| 20260502050158 | 37 | 30 | 3.5 | 5.2 | 0.00 | 0.00 | 0.00 | 69 | |
| 20260502045658 | 37 | 345 | 5.2 | 6.1 | 0.00 | 0.00 | 0.00 | 69 | |
| 20260502045158 | 37 | 14 | 3.5 | 6.1 | 0.00 | 0.00 | 0.00 | 69 | |
| 20260502044658 | 37 | 11 | 4.3 | 6.1 | 0.00 | 0.00 | 0.00 | 69 | |
| 20260502044158 | 37 | 42 | 2.6 | 6.1 | 0.00 | 0.00 | 0.00 | 69 | |
| 20260502043658 | 37 | 23 | 1.7 | 4.3 | 0.00 | 0.00 | 0.00 | 68 | |
| 20260502043158 | 37 | 358 | 3.5 | 4.3 | 0.00 | 0.00 | 0.00 | 68 | |
| 20260502042658 | 37 | 7 | 1.7 | 3.5 | 0.00 | 0.00 | 0.00 | 68 | |
| 20260502042158 | 37 | 5 | 1.7 | 6.1 | 0.00 | 0.00 | 0.00 | 67 | |
| 20260502041658 | 37 | 344 | 1.7 | 4.3 | 0.00 | 0.00 | 0.00 | 67 | |
| 20260502041158 | 38 | 4 | 2.6 | 4.3 | 0.00 | 0.00 | 0.00 | 66 | |
| 20260502040658 | 38 | 4 | 2.6 | 6.1 | 0.00 | 0.00 | 0.00 | 66 | |
| 20260502040158 | 38 | 22 | 5.2 | 6.1 | 0.00 | 0.00 | 0.00 | 65 | |
| 20260502035658 | 38 | 2 | 3.5 | 7.0 | 0.00 | 0.00 | 0.00 | 66 | |
| 20260502035158 | 38 | 344 | 4.3 | 7.8 | 0.00 | 0.00 | 0.00 | 65 | |
| 20260502034658 | 38 | 352 | 2.6 | 6.1 | 0.00 | 0.00 | 0.00 | 65 | |
| 20260502034158 | 38 | 327 | 3.5 | 6.1 | 0.00 | 0.00 | 0.00 | 65 | |
| 20260502033658 | 38 | 1 | 2.6 | 7.0 | 0.00 | 0.00 | 0.00 | 65 | |
| 20260502033158 | 38 | 14 | 4.3 | 6.1 | 0.00 | 0.00 | 0.00 | 65 |